• en France
  • Liste des pays
  • À 7 jours
  • Température de l'eau
  • Carte satellitaire
  • Carte météo
  • Widgets météo
  • user-avatar
    Se connecter

    Météo par heure à Coleraine

    Ce jour, 19 Septembre, Mercredi

    Heure Température Précipitation Vent Pression Humidité
    00:00 +9°C° 0 mm 10 m/s 746 mmHg 77%
    01:00 +10°C° 0 mm 9 m/s 746 mmHg 76%
    02:00 +10°C° 0 mm 9 m/s 746 mmHg 75%
    03:00 +10°C° 0 mm 9 m/s 746 mmHg 74%
    04:00 +10°C° 0.5 mm 8 m/s 745 mmHg 81%
    05:00 +10°C° 0.5 mm 8 m/s 744 mmHg 87%
    06:00 +10°C° 0 mm 8 m/s 741 mmHg 97%
    07:00 +11°C° 1.6 mm 10 m/s 740 mmHg 92%
    08:00 +12°C° 1.6 mm 12 m/s 738 mmHg 88%
    09:00 +12°C° 1.6 mm 14 m/s 736 mmHg 83%
    10:00 +11°C° 0.2 mm 15 m/s 738 mmHg 79%
    11:00 +11°C° 0.2 mm 16 m/s 739 mmHg 75%
    12:00 +10°C° 0.2 mm 17 m/s 741 mmHg 72%
    13:00 +10°C° 0.3 mm 16 m/s 742 mmHg 70%
    14:00 +10°C° 0.3 mm 15 m/s 744 mmHg 68%
    15:00 +10°C° 0.3 mm 14 m/s 746 mmHg 66%
    16:00 +9°C° 0 mm 13 m/s 747 mmHg 66%
    17:00 +9°C° 0 mm 12 m/s 747 mmHg 66%
    18:00 +8°C° 0 mm 11 m/s 748 mmHg 66%
    19:00 +8°C° 0.1 mm 11 m/s 748 mmHg 68%
    20:00 +8°C° 0.1 mm 11 m/s 749 mmHg 70%
    21:00 +7°C° 0.1 mm 11 m/s 750 mmHg 72%
    22:00 +7°C° 0 mm 10 m/s 750 mmHg 74%
    23:00 +7°C° 0 mm 10 m/s 750 mmHg 75%

    Demain, 20 Septembre, Jeudi

    Heure Température Précipitation Vent Pression Humidité
    00:00 +7°C° 0 mm 10 m/s 750 mmHg 77%
    01:00 +7°C° 0 mm 9 m/s 750 mmHg 78%
    02:00 +6°C° 0 mm 9 m/s 751 mmHg 79%
    03:00 +6°C° 0 mm 9 m/s 751 mmHg 80%
    04:00 +6°C° 0 mm 8 m/s 751 mmHg 82%
    05:00 +6°C° 0 mm 8 m/s 751 mmHg 83%
    06:00 +6°C° 0 mm 8 m/s 751 mmHg 84%
    07:00 +8°C° 0 mm 7 m/s 751 mmHg 81%
    08:00 +9°C° 0 mm 7 m/s 751 mmHg 79%
    09:00 +9°C° 0 mm 7 m/s 752 mmHg 76%
    10:00 +10°C° 0 mm 6 m/s 751 mmHg 74%
    11:00 +10°C° 0 mm 5 m/s 751 mmHg 73%
    12:00 +12°C° 0 mm 4 m/s 751 mmHg 72%
    13:00 +11°C° 0.2 mm 3 m/s 750 mmHg 76%
    14:00 +11°C° 0.2 mm 3 m/s 749 mmHg 80%
    15:00 +10°C° 0.2 mm 2 m/s 748 mmHg 85%
    16:00 +9°C° 1.3 mm 2 m/s 747 mmHg 88%
    17:00 +8°C° 1.3 mm 2 m/s 746 mmHg 92%
    18:00 +8°C° 1.3 mm 2 m/s 745 mmHg 96%
    19:00 +7°C° 1.6 mm 3 m/s 745 mmHg 96%
    20:00 +6°C° 1.6 mm 4 m/s 745 mmHg 95%
    21:00 +6°C° 1.6 mm 5 m/s 744 mmHg 95%
    22:00 +5°C° 0.5 mm 6 m/s 744 mmHg 94%
    23:00 +5°C° 0.5 mm 6 m/s 744 mmHg 92%

    Après-demain, 21 Septembre, Vendredi

    Heure Température Précipitation Vent Pression Humidité
    00:00 +5°C° 0.5 mm 7 m/s 744 mmHg 91%
    01:00 +5°C° 0.2 mm 7 m/s 744 mmHg 91%
    02:00 +5°C° 0.2 mm 8 m/s 744 mmHg 91%
    03:00 +5°C° 0.2 mm 8 m/s 744 mmHg 91%
    04:00 +5°C° 0.4 mm 9 m/s 745 mmHg 91%
    05:00 +5°C° 0.4 mm 9 m/s 745 mmHg 91%
    06:00 +5°C° 0.4 mm 9 m/s 745 mmHg 92%
    07:00 +6°C° 0.8 mm 10 m/s 746 mmHg 90%
    08:00 +7°C° 0.8 mm 10 m/s 746 mmHg 89%
    09:00 +7°C° 0.8 mm 10 m/s 747 mmHg 88%
    10:00 +8°C° 0.3 mm 10 m/s 749 mmHg 84%
    11:00 +9°C° 0.3 mm 10 m/s 750 mmHg 80%
    12:00 +10°C° 0.3 mm 9 m/s 751 mmHg 76%
    13:00 +10°C° 0.2 mm 9 m/s 752 mmHg 74%
    14:00 +9°C° 0.2 mm 10 m/s 753 mmHg 71%
    15:00 +9°C° 0.2 mm 10 m/s 754 mmHg 69%
    16:00 +8°C° 0.1 mm 9 m/s 754 mmHg 71%
    17:00 +8°C° 0.1 mm 9 m/s 754 mmHg 73%
    18:00 +7°C° 0.1 mm 8 m/s 755 mmHg 75%
    19:00 +6°C° 0.1 mm 8 m/s 755 mmHg 76%
    20:00 +6°C° 0.1 mm 8 m/s 756 mmHg 77%
    21:00 +5°C° 0.1 mm 8 m/s 756 mmHg 79%
    22:00 +5°C° 0.1 mm 8 m/s 757 mmHg 81%
    23:00 +5°C° 0.1 mm 7 m/s 757 mmHg 83%

    22 Septembre, Samedi

    Heure Température Précipitation Vent Pression Humidité
    00:00 +6°C° 0.1 mm 7 m/s 758 mmHg 85%
    01:00 +5°C° 0.1 mm 6 m/s 758 mmHg 87%
    02:00 +5°C° 0.1 mm 6 m/s 758 mmHg 89%
    03:00 +6°C° 0.1 mm 5 m/s 759 mmHg 91%
    04:00 +5°C° 0.1 mm 5 m/s 759 mmHg 92%
    05:00 +5°C° 0.1 mm 5 m/s 760 mmHg 93%
    06:00 +5°C° 0.1 mm 4 m/s 760 mmHg 94%
    07:00 +6°C° 0.1 mm 5 m/s 760 mmHg 89%
    08:00 +7°C° 0.1 mm 5 m/s 760 mmHg 85%
    09:00 +9°C° 0.1 mm 5 m/s 761 mmHg 80%
    10:00 +9°C° 0.1 mm 5 m/s 761 mmHg 76%
    11:00 +10°C° 0.1 mm 5 m/s 761 mmHg 72%
    12:00 +12°C° 0.1 mm 5 m/s 761 mmHg 67%
    13:00 +12°C° 0 mm 5 m/s 761 mmHg 66%
    14:00 +11°C° 0 mm 4 m/s 761 mmHg 66%
    15:00 +11°C° 0 mm 4 m/s 761 mmHg 65%
    16:00 +10°C° 0 mm 3 m/s 761 mmHg 68%
    17:00 +10°C° 0 mm 2 m/s 760 mmHg 72%
    18:00 +9°C° 0 mm 2 m/s 760 mmHg 76%
    19:00 +8°C° 0 mm 2 m/s 760 mmHg 77%
    20:00 +8°C° 0 mm 2 m/s 759 mmHg 78%
    21:00 +7°C° 0 mm 2 m/s 759 mmHg 79%
    22:00 +7°C° 0.2 mm 3 m/s 758 mmHg 82%
    23:00 +6°C° 0.2 mm 4 m/s 757 mmHg 84%

    23 Septembre, Dimanche

    Heure Température Précipitation Vent Pression Humidité
    00:00 +6°C° 0.2 mm 4 m/s 756 mmHg 87%
    01:00 +6°C° 0.4 mm 5 m/s 755 mmHg 88%
    02:00 +5°C° 0.4 mm 6 m/s 754 mmHg 89%
    03:00 +5°C° 0.4 mm 7 m/s 753 mmHg 90%
    04:00 +5°C° 0.6 mm 8 m/s 753 mmHg 89%
    05:00 +5°C° 0.6 mm 8 m/s 753 mmHg 88%
    06:00 +5°C° 0.6 mm 9 m/s 753 mmHg 88%
    07:00 +5°C° 0.2 mm 9 m/s 753 mmHg 87%
    08:00 +6°C° 0.2 mm 9 m/s 754 mmHg 85%
    09:00 +6°C° 0.2 mm 10 m/s 755 mmHg 84%
    10:00 +7°C° 0.1 mm 10 m/s 756 mmHg 79%
    11:00 +7°C° 0.1 mm 10 m/s 757 mmHg 74%
    12:00 +8°C° 0.1 mm 11 m/s 758 mmHg 69%
    13:00 +8°C° 0 mm 11 m/s 759 mmHg 66%
    14:00 +8°C° 0 mm 11 m/s 760 mmHg 62%
    15:00 +9°C° 0 mm 11 m/s 761 mmHg 59%
    16:00 +8°C° 0 mm 10 m/s 762 mmHg 61%
    17:00 +7°C° 0 mm 10 m/s 762 mmHg 64%
    18:00 +6°C° 0 mm 9 m/s 763 mmHg 66%
    19:00 +6°C° 0 mm 8 m/s 765 mmHg 68%
    20:00 +6°C° 0 mm 8 m/s 766 mmHg 70%
    21:00 +5°C° 0 mm 7 m/s 767 mmHg 72%
    22:00 +5°C° 0 mm 7 m/s 767 mmHg 73%
    23:00 +5°C° 0 mm 6 m/s 768 mmHg 75%

    24 Septembre, Lundi

    Heure Température Précipitation Vent Pression Humidité
    00:00 +6°C° 0 mm 5 m/s 769 mmHg 77%
    01:00 +6°C° 0.1 mm 5 m/s 769 mmHg 80%
    02:00 +6°C° 0.1 mm 5 m/s 769 mmHg 82%
    03:00 +5°C° 0.1 mm 5 m/s 769 mmHg 85%
    04:00 +4°C° 0.1 mm 6 m/s 769 mmHg 85%
    05:00 +4°C° 0.1 mm 6 m/s 770 mmHg 85%
    06:00 +4°C° 0.1 mm 6 m/s 770 mmHg 84%
    07:00 +7°C° 0 mm 6 m/s 770 mmHg 81%
    08:00 +8°C° 0 mm 7 m/s 771 mmHg 77%
    09:00 +9°C° 0 mm 7 m/s 771 mmHg 74%
    10:00 +9°C° 0.1 mm 7 m/s 772 mmHg 72%
    11:00 +10°C° 0.1 mm 7 m/s 772 mmHg 71%
    12:00 +11°C° 0.1 mm 7 m/s 773 mmHg 70%
    13:00 +11°C° 0.1 mm 7 m/s 773 mmHg 70%
    14:00 +11°C° 0.1 mm 6 m/s 773 mmHg 70%
    15:00 +11°C° 0.1 mm 6 m/s 773 mmHg 70%
    16:00 +10°C° 0 mm 5 m/s 773 mmHg 74%
    17:00 +9°C° 0 mm 5 m/s 773 mmHg 79%
    18:00 +8°C° 0 mm 4 m/s 773 mmHg 83%
    19:00 +7°C° 0 mm 4 m/s 773 mmHg 85%
    20:00 +6°C° 0 mm 4 m/s 773 mmHg 87%
    21:00 +6°C° 0 mm 4 m/s 773 mmHg 89%
    22:00 +6°C° 0.1 mm 5 m/s 773 mmHg 88%
    23:00 +7°C° 0.1 mm 5 m/s 772 mmHg 87%
    Voir plus